Time,TemperatureF,DewpointF,PressureIn,WindDirection,WindDirectionDegrees,WindSpeedMPH,WindSpeedGustMPH,Humidity,HourlyPrecipIn,Conditions,Clouds,dailyrainin,SoftwareType,DateUTC
2013-08-03 00:01:00,64.3,64.3,29.84,WNW,292,0.0,0.0,100,0.00,,,0.00,Wunderground v.1.15,2013-08-03 04:01:00,
2013-08-03 00:02:00,64.3,64.3,29.84,WNW,292,0.0,0.0,100,0.00,,,0.00,Wunderground v.1.15,2013-08-03 04:02:00,
2013-08-03 00:04:00,64.2,64.2,29.84,WNW,292,0.0,0.0,100,0.00,,,0.00,Wunderground v.1.15,2013-08-03 04:04:00,
2013-08-03 00:07:00,64.2,64.2,29.84,WNW,292,0.0,0.0,100,0.00,,,0.00,Wunderground v.1.15,2013-08-03 04:07:00,
2013-08-03 00:13:00,64.2,64.2,29.84,WNW,292,0.0,0.0,100,0.00,,,0.00,Wunderground v.1.15,2013-08-03 04:13:00,
2013-08-03 00:15:00,64.2,64.2,29.85,WNW,292,0.0,0.0,100,0.00,,,0.00,Wunderground v.1.15,2013-08-03 04:15:00,
2013-08-03 00:21:00,64.0,64.0,29.85,WNW,291,0.0,0.0,100,0.00,,,0.00,Wunderground v.1.15,2013-08-03 04:21:00,
2013-08-03 00:26:00,64.0,64.0,29.85,WNW,291,0.0,0.0,100,0.00,,,0.00,Wunderground v.1.15,2013-08-03 04:26:00,
2013-08-03 00:32:00,63.9,63.9,29.85,WNW,291,0.0,0.0,100,0.00,,,0.00,Wunderground v.1.15,2013-08-03 04:32:00,
2013-08-03 00:37:00,64.0,64.0,29.85,WNW,291,0.0,0.0,100,0.00,,,0.00,Wunderground v.1.15,2013-08-03 04:37:00,
2013-08-03 00:42:00,64.0,64.0,29.85,WNW,291,0.0,0.0,100,0.00,,,0.00,Wunderground v.1.15,2013-08-03 04:42:00,
2013-08-03 00:49:00,63.9,63.9,29.85,WNW,289,0.0,0.0,100,0.00,,,0.00,Wunderground v.1.15,2013-08-03 04:49:00,
2013-08-03 00:54:00,64.0,64.0,29.85,WNW,289,0.0,0.0,100,0.00,,,0.00,Wunderground v.1.15,2013-08-03 04:54:00,
2013-08-03 00:59:00,63.9,63.9,29.86,WNW,289,0.0,0.0,100,0.00,,,0.00,Wunderground v.1.15,2013-08-03 04:59:00,
2013-08-03 01:06:00,64.0,64.0,29.86,WNW,285,0.0,0.0,100,0.00,,,0.00,Wunderground v.1.15,2013-08-03 05:06:00,
2013-08-03 01:11:00,64.0,64.0,29.86,West,281,0.0,0.0,100,0.00,,,0.00,Wunderground v.1.15,2013-08-03 05:11:00,
2013-08-03 01:16:00,63.7,63.7,29.86,WNW,299,0.0,0.0,100,0.00,,,0.00,Wunderground v.1.15,2013-08-03 05:16:00,
2013-08-03 01:22:00,63.7,63.7,29.86,WNW,299,0.0,0.0,100,0.00,,,0.00,Wunderground v.1.15,2013-08-03 05:22:00,
2013-08-03 01:27:00,63.5,63.5,29.86,WNW,299,0.0,0.0,100,0.00,,,0.00,Wunderground v.1.15,2013-08-03 05:27:00,
2013-08-03 01:34:00,63.5,63.5,29.87,WNW,299,0.0,0.0,100,0.00,,,0.00,Wunderground v.1.15,2013-08-03 05:34:00,
2013-08-03 01:39:00,63.5,63.5,29.87,WNW,299,0.0,0.0,100,0.00,,,0.00,Wunderground v.1.15,2013-08-03 05:39:00,
2013-08-03 01:45:00,63.5,63.5,29.87,WNW,298,0.0,0.0,100,0.00,,,0.00,Wunderground v.1.15,2013-08-03 05:45:00,
2013-08-03 01:52:00,63.4,63.4,29.87,WNW,298,0.0,0.0,100,0.00,,,0.00,Wunderground v.1.15,2013-08-03 05:52:00,
2013-08-03 01:57:00,63.4,63.4,29.87,WNW,298,0.0,0.0,100,0.00,,,0.00,Wunderground v.1.15,2013-08-03 05:57:00,
2013-08-03 02:04:00,63.4,63.4,29.88,WNW,298,0.0,0.0,100,0.00,,,0.00,Wunderground v.1.15,2013-08-03 06:04:00,
2013-08-03 02:09:00,63.5,63.5,29.88,WNW,298,0.0,0.0,100,0.00,,,0.00,Wunderground v.1.15,2013-08-03 06:09:00,
2013-08-03 02:14:00,63.5,63.5,29.87,WNW,298,0.0,0.0,100,0.00,,,0.00,Wunderground v.1.15,2013-08-03 06:14:00,
2013-08-03 02:20:00,63.5,63.5,29.87,WNW,298,0.0,0.0,100,0.00,,,0.00,Wunderground v.1.15,2013-08-03 06:20:00,
2013-08-03 02:25:00,63.5,63.5,29.87,WNW,298,0.0,0.0,100,0.00,,,0.00,Wunderground v.1.15,2013-08-03 06:25:00,
2013-08-03 02:32:00,63.5,63.5,29.87,WNW,298,0.0,0.0,100,0.00,,,0.00,Wunderground v.1.15,2013-08-03 06:32:00,
2013-08-03 02:37:00,63.5,63.5,29.87,WNW,298,0.0,0.0,100,0.00,,,0.00,Wunderground v.1.15,2013-08-03 06:37:00,
2013-08-03 02:42:00,63.5,63.5,29.87,WNW,298,0.0,0.0,100,0.00,,,0.00,Wunderground v.1.15,2013-08-03 06:42:00,
2013-08-03 02:49:00,63.5,63.5,29.86,WNW,298,0.0,0.0,100,0.00,,,0.00,Wunderground v.1.15,2013-08-03 06:49:00,
2013-08-03 02:54:00,63.5,63.5,29.86,WNW,298,0.0,0.0,100,0.00,,,0.00,Wunderground v.1.15,2013-08-03 06:54:00,
2013-08-03 02:59:00,63.4,63.4,29.86,WNW,298,0.0,0.0,100,0.00,,,0.00,Wunderground v.1.15,2013-08-03 06:59:00,
2013-08-03 03:05:00,63.4,63.4,29.86,WNW,298,0.0,0.0,100,0.00,,,0.00,Wunderground v.1.15,2013-08-03 07:05:00,
2013-08-03 03:11:00,63.4,63.4,29.86,WNW,298,0.0,0.0,100,0.00,,,0.00,Wunderground v.1.15,2013-08-03 07:11:00,
2013-08-03 03:16:00,63.4,63.4,29.86,WNW,298,0.0,0.0,100,0.00,,,0.00,Wunderground v.1.15,2013-08-03 07:16:00,
2013-08-03 03:21:00,63.4,63.4,29.86,WNW,296,0.0,0.0,100,0.00,,,0.00,Wunderground v.1.15,2013-08-03 07:21:00,
2013-08-03 03:27:00,63.4,63.4,29.86,WNW,294,0.0,0.0,100,0.00,,,0.00,Wunderground v.1.15,2013-08-03 07:27:00,
2013-08-03 03:32:00,63.5,63.5,29.86,WNW,289,0.0,0.0,100,0.00,,,0.00,Wunderground v.1.15,2013-08-03 07:32:00,
2013-08-03 03:39:00,63.1,63.1,29.86,WNW,298,0.0,0.0,100,0.00,,,0.00,Wunderground v.1.15,2013-08-03 07:39:00,
2013-08-03 03:44:00,63.2,63.2,29.86,WNW,298,0.0,0.0,100,0.00,,,0.00,Wunderground v.1.15,2013-08-03 07:44:00,
2013-08-03 03:50:00,62.9,62.9,29.86,WNW,296,0.0,0.0,100,0.00,,,0.00,Wunderground v.1.15,2013-08-03 07:50:00,
2013-08-03 03:55:00,62.9,62.9,29.86,WNW,295,0.0,0.0,100,0.00,,,0.00,Wunderground v.1.15,2013-08-03 07:55:00,
2013-08-03 04:01:00,62.9,62.9,29.87,WNW,295,0.0,0.0,100,0.00,,,0.00,Wunderground v.1.15,2013-08-03 08:01:00,
2013-08-03 04:06:00,62.9,62.9,29.87,WNW,294,0.0,0.0,100,0.00,,,0.00,Wunderground v.1.15,2013-08-03 08:06:00,
2013-08-03 04:12:00,62.7,62.7,29.87,WNW,289,0.0,0.0,100,0.00,,,0.00,Wunderground v.1.15,2013-08-03 08:12:00,
2013-08-03 04:18:00,62.6,62.6,29.87,WNW,295,0.0,0.0,100,0.00,,,0.00,Wunderground v.1.15,2013-08-03 08:18:00,
2013-08-03 04:24:00,62.4,62.4,29.87,WNW,294,0.0,0.0,100,0.00,,,0.00,Wunderground v.1.15,2013-08-03 08:24:00,
2013-08-03 04:29:00,62.4,62.4,29.87,WNW,294,0.0,0.0,100,0.00,,,0.00,Wunderground v.1.15,2013-08-03 08:29:00,
2013-08-03 04:34:00,62.3,62.3,29.87,WNW,292,0.0,0.0,100,0.00,,,0.00,Wunderground v.1.15,2013-08-03 08:34:00,
2013-08-03 04:40:00,62.3,62.3,29.87,WNW,292,0.0,0.0,100,0.00,,,0.00,Wunderground v.1.15,2013-08-03 08:40:00,
2013-08-03 04:46:00,62.3,62.3,29.88,WNW,292,0.0,0.0,100,0.00,,,0.00,Wunderground v.1.15,2013-08-03 08:46:00,
2013-08-03 04:52:00,62.1,62.1,29.88,WNW,292,0.0,0.0,100,0.00,,,0.00,Wunderground v.1.15,2013-08-03 08:52:00,
2013-08-03 04:57:00,62.1,62.1,29.88,WNW,291,0.0,0.0,100,0.00,,,0.00,Wunderground v.1.15,2013-08-03 08:57:00,
2013-08-03 05:03:00,62.0,62.0,29.88,WNW,289,0.0,0.0,100,0.00,,,0.00,Wunderground v.1.15,2013-08-03 09:03:00,
2013-08-03 05:09:00,61.8,61.8,29.88,WNW,287,0.0,0.0,100,0.00,,,0.00,Wunderground v.1.15,2013-08-03 09:09:00,
2013-08-03 05:14:00,62.0,62.0,29.88,WNW,284,0.0,0.0,100,0.00,,,0.00,Wunderground v.1.15,2013-08-03 09:14:00,
2013-08-03 05:19:00,61.8,61.8,29.88,WNW,285,0.0,0.0,100,0.00,,,0.00,Wunderground v.1.15,2013-08-03 09:19:00,
2013-08-03 05:24:00,61.5,61.5,29.88,WNW,285,0.0,0.0,100,0.00,,,0.00,Wunderground v.1.15,2013-08-03 09:24:00,
2013-08-03 05:30:00,61.5,61.5,29.88,WNW,282,0.0,0.0,100,0.00,,,0.00,Wunderground v.1.15,2013-08-03 09:30:00,
2013-08-03 05:35:00,66.0,66.0,29.88,ENE,64,0.0,0.0,100,0.00,,,0.00,Wunderground v.1.15,2013-08-03 09:35:00,
2013-08-03 05:41:00,66.0,66.0,29.88,ENE,64,0.0,0.0,100,0.00,,,0.00,Wunderground v.1.15,2013-08-03 09:41:00,
2013-08-03 05:46:00,65.8,65.8,29.88,ENE,65,0.0,0.0,100,0.00,,,0.00,Wunderground v.1.15,2013-08-03 09:46:00,
2013-08-03 05:52:00,60.4,60.4,29.88,NW,309,0.0,0.0,100,0.00,,,0.00,Wunderground v.1.15,2013-08-03 09:52:00,
2013-08-03 05:56:00,60.4,60.4,29.88,NW,309,0.0,0.0,100,0.00,,,0.00,Wunderground v.1.15,2013-08-03 09:56:00,
2013-08-03 06:02:00,60.2,60.2,29.89,NW,309,0.0,0.0,100,0.00,,,0.00,Wunderground v.1.15,2013-08-03 10:02:00,
2013-08-03 06:08:00,60.2,60.2,29.89,NW,309,0.0,0.0,100,0.00,,,0.00,Wunderground v.1.15,2013-08-03 10:08:00,
2013-08-03 06:14:00,60.1,60.1,29.89,NW,309,0.0,0.0,100,0.00,,,0.00,Wunderground v.1.15,2013-08-03 10:14:00,
2013-08-03 06:19:00,60.1,60.1,29.89,NW,309,0.0,0.0,100,0.00,,,0.00,Wunderground v.1.15,2013-08-03 10:19:00,
2013-08-03 06:25:00,60.1,60.1,29.89,NW,309,0.0,0.0,100,0.00,,,0.00,Wunderground v.1.15,2013-08-03 10:25:00,
2013-08-03 06:30:00,59.9,59.9,29.90,NW,309,0.0,0.0,100,0.00,,,0.00,Wunderground v.1.15,2013-08-03 10:30:00,
2013-08-03 06:36:00,59.9,59.9,29.90,NW,309,0.0,0.0,100,0.00,,,0.00,Wunderground v.1.15,2013-08-03 10:36:00,
2013-08-03 06:41:00,59.9,59.9,29.90,NW,309,0.0,0.0,100,0.00,,,0.00,Wunderground v.1.15,2013-08-03 10:41:00,
2013-08-03 06:47:00,59.9,59.9,29.90,NW,309,0.0,0.0,100,0.00,,,0.00,Wunderground v.1.15,2013-08-03 10:47:00,
2013-08-03 06:52:00,59.9,59.9,29.90,NW,309,0.0,0.0,100,0.00,,,0.00,Wunderground v.1.15,2013-08-03 10:52:00,
2013-08-03 06:57:00,59.9,59.9,29.90,NW,309,0.0,0.0,100,0.00,,,0.00,Wunderground v.1.15,2013-08-03 10:57:00,
2013-08-03 07:02:00,-999.9,-99.9,29.89,North,32767,-999.0,0.0,255,-99.99,,,0.00,Wunderground v.1.15,2013-08-03 11:02:00,
2013-08-03 07:07:00,-999.9,-99.9,29.89,North,32767,-999.0,0.0,255,-99.99,,,0.00,Wunderground v.1.15,2013-08-03 11:07:00,
2013-08-03 07:12:00,-999.9,-99.9,29.89,North,32767,-999.0,0.0,255,-99.99,,,0.00,Wunderground v.1.15,2013-08-03 11:12:00,
2013-08-03 07:17:00,-999.9,-99.9,29.90,North,32767,-999.0,0.0,255,-99.99,,,0.00,Wunderground v.1.15,2013-08-03 11:17:00,
2013-08-03 07:23:00,-999.9,-99.9,29.90,North,32767,-999.0,0.0,255,-99.99,,,0.00,Wunderground v.1.15,2013-08-03 11:23:00,
2013-08-03 07:28:00,-999.9,-99.9,29.90,North,32767,-999.0,0.0,255,-99.99,,,0.00,Wunderground v.1.15,2013-08-03 11:28:00,
2013-08-03 07:34:00,-999.9,-99.9,29.90,North,32767,-999.0,0.0,255,-99.99,,,0.00,Wunderground v.1.15,2013-08-03 11:34:00,
2013-08-03 07:39:00,-999.9,-99.9,29.90,North,32767,-999.0,0.0,255,-99.99,,,0.00,Wunderground v.1.15,2013-08-03 11:39:00,
2013-08-03 07:44:00,-999.9,-99.9,29.90,North,32767,-999.0,0.0,255,-99.99,,,0.00,Wunderground v.1.15,2013-08-03 11:44:00,
2013-08-03 07:50:00,-999.9,-99.9,29.91,North,32767,-999.0,0.0,255,-99.99,,,0.00,Wunderground v.1.15,2013-08-03 11:50:00,
2013-08-03 07:55:00,-999.9,-99.9,29.91,North,32767,-999.0,0.0,255,-99.99,,,0.00,Wunderground v.1.15,2013-08-03 11:55:00,
2013-08-03 08:00:00,-999.9,-99.9,29.92,North,32767,-999.0,0.0,255,-99.99,,,0.00,Wunderground v.1.15,2013-08-03 12:00:00,
2013-08-03 08:06:00,-999.9,-99.9,29.92,North,32767,-999.0,0.0,255,-99.99,,,0.00,Wunderground v.1.15,2013-08-03 12:06:00,
2013-08-03 08:12:00,-999.9,-99.9,29.92,North,32767,-999.0,0.0,255,-99.99,,,0.00,Wunderground v.1.15,2013-08-03 12:12:00,
2013-08-03 08:17:00,-999.9,-99.9,29.92,North,32767,-999.0,0.0,255,-99.99,,,0.00,Wunderground v.1.15,2013-08-03 12:17:00,
2013-08-03 08:23:00,-999.9,-99.9,29.92,North,32767,-999.0,0.0,255,-99.99,,,0.00,Wunderground v.1.15,2013-08-03 12:23:00,
2013-08-03 08:28:00,-999.9,-99.9,29.92,North,32767,-999.0,0.0,255,-99.99,,,0.00,Wunderground v.1.15,2013-08-03 12:28:00,
2013-08-03 08:33:00,-999.9,-99.9,29.92,North,32767,-999.0,0.0,255,-99.99,,,0.00,Wunderground v.1.15,2013-08-03 12:33:00,
2013-08-03 08:38:00,-999.9,-99.9,29.92,North,32767,-999.0,0.0,255,-99.99,,,0.00,Wunderground v.1.15,2013-08-03 12:38:00,
2013-08-03 08:44:00,-999.9,-99.9,29.92,North,32767,-999.0,0.0,255,-99.99,,,0.00,Wunderground v.1.15,2013-08-03 12:44:00,
2013-08-03 08:50:00,-999.9,-99.9,29.92,North,32767,-999.0,0.0,255,-99.99,,,0.00,Wunderground v.1.15,2013-08-03 12:50:00,
2013-08-03 08:55:00,-999.9,-99.9,29.92,North,32767,-999.0,0.0,255,-99.99,,,0.00,Wunderground v.1.15,2013-08-03 12:55:00,
2013-08-03 09:00:00,-999.9,-99.9,29.92,North,32767,-999.0,0.0,255,-99.99,,,0.00,Wunderground v.1.15,2013-08-03 13:00:00,
2013-08-03 09:05:00,-999.9,-99.9,29.92,North,32767,-999.0,0.0,255,-99.99,,,0.00,Wunderground v.1.15,2013-08-03 13:05:00,
2013-08-03 09:12:00,-999.9,-99.9,29.92,North,32767,-999.0,0.0,255,-99.99,,,0.00,Wunderground v.1.15,2013-08-03 13:12:00,
2013-08-03 09:17:00,-999.9,-99.9,29.93,North,32767,-999.0,0.0,255,-99.99,,,0.00,Wunderground v.1.15,2013-08-03 13:17:00,
2013-08-03 09:22:00,-999.9,-99.9,29.93,North,32767,-999.0,0.0,255,-99.99,,,0.00,Wunderground v.1.15,2013-08-03 13:22:00,
2013-08-03 09:27:00,-999.9,-99.9,29.93,North,32767,-999.0,0.0,255,-99.99,,,0.00,Wunderground v.1.15,2013-08-03 13:27:00,
2013-08-03 09:33:00,-999.9,-99.9,29.93,North,32767,-999.0,0.0,255,-99.99,,,0.00,Wunderground v.1.15,2013-08-03 13:33:00,
2013-08-03 09:38:00,-999.9,-99.9,29.93,North,32767,-999.0,0.0,255,-99.99,,,0.00,Wunderground v.1.15,2013-08-03 13:38:00,
2013-08-03 09:43:00,-999.9,-99.9,29.93,North,32767,-999.0,0.0,255,-99.99,,,0.00,Wunderground v.1.15,2013-08-03 13:43:00,
2013-08-03 09:49:00,73.0,73.0,29.94,NE,49,0.0,0.0,100,0.00,,,0.00,Wunderground v.1.15,2013-08-03 13:49:00,
2013-08-03 09:54:00,73.3,73.3,29.94,NE,41,1.0,3.0,100,0.00,,,0.00,Wunderground v.1.15,2013-08-03 13:54:00,
2013-08-03 10:00:00,72.8,72.8,29.93,NW,305,1.0,2.0,100,0.00,,,0.00,Wunderground v.1.15,2013-08-03 14:00:00,
2013-08-03 10:05:00,73.2,73.2,29.93,NW,305,1.0,2.0,100,0.00,,,0.00,Wunderground v.1.15,2013-08-03 14:05:00,
2013-08-03 10:11:00,73.0,73.0,29.93,NW,305,1.0,3.0,100,0.00,,,0.00,Wunderground v.1.15,2013-08-03 14:11:00,
2013-08-03 10:16:00,73.2,73.2,29.93,NW,305,1.0,3.0,100,0.00,,,0.00,Wunderground v.1.15,2013-08-03 14:16:00,
2013-08-03 10:22:00,73.3,73.3,29.93,NW,304,1.0,1.0,100,0.00,,,0.00,Wunderground v.1.15,2013-08-03 14:22:00,
2013-08-03 10:27:00,73.5,73.5,29.93,NW,304,1.0,3.0,100,0.00,,,0.00,Wunderground v.1.15,2013-08-03 14:27:00,
2013-08-03 10:33:00,73.9,73.9,29.93,WNW,302,1.0,2.0,100,0.00,,,0.00,Wunderground v.1.15,2013-08-03 14:33:00,
2013-08-03 10:38:00,74.0,74.0,29.93,WNW,302,1.0,2.0,100,0.00,,,0.00,Wunderground v.1.15,2013-08-03 14:38:00,
2013-08-03 10:44:00,74.2,74.2,29.93,WNW,302,1.0,3.0,100,0.00,,,0.00,Wunderground v.1.15,2013-08-03 14:44:00,
2013-08-03 10:50:00,74.4,74.4,29.93,NW,313,2.0,4.0,100,0.00,,,0.00,Wunderground v.1.15,2013-08-03 14:50:00,
2013-08-03 10:55:00,74.4,70.6,29.93,WNW,284,3.0,4.0,88,0.00,,,0.00,Wunderground v.1.15,2013-08-03 14:55:00,
2013-08-03 11:01:00,74.2,71.7,29.94,WNW,284,2.0,5.0,92,0.00,,,0.00,Wunderground v.1.15,2013-08-03 15:01:00,
2013-08-03 11:07:00,74.2,66.1,29.94,West,275,2.0,7.0,76,0.00,,,0.00,Wunderground v.1.15,2013-08-03 15:07:00,
2013-08-03 11:13:00,74.6,66.9,29.94,West,275,2.0,2.0,77,0.00,,,0.00,Wunderground v.1.15,2013-08-03 15:13:00,
2013-08-03 11:18:00,74.9,62.3,29.95,WNW,289,2.0,5.0,65,0.00,,,0.00,Wunderground v.1.15,2013-08-03 15:18:00,
2013-08-03 11:24:00,75.1,62.5,29.95,WNW,295,3.0,3.0,65,0.00,,,0.00,Wunderground v.1.15,2013-08-03 15:24:00,
2013-08-03 11:29:00,75.3,62.3,29.95,West,263,3.0,5.0,64,0.00,,,0.00,Wunderground v.1.15,2013-08-03 15:29:00,
2013-08-03 11:35:00,75.4,62.8,29.95,WSW,254,2.0,5.0,65,0.00,,,0.00,Wunderground v.1.15,2013-08-03 15:35:00,
2013-08-03 11:40:00,75.1,60.3,29.95,West,268,3.0,3.0,60,0.00,,,0.00,Wunderground v.1.15,2013-08-03 15:40:00,
2013-08-03 11:45:00,74.9,61.5,29.95,North,350,4.0,8.0,63,0.00,,,0.00,Wunderground v.1.15,2013-08-03 15:45:00,
2013-08-03 11:50:00,74.9,61.5,29.95,WSW,258,4.0,4.0,63,0.00,,,0.00,Wunderground v.1.15,2013-08-03 15:50:00,
2013-08-03 11:56:00,75.1,63.0,29.95,WSW,248,4.0,6.0,66,0.00,,,0.00,Wunderground v.1.15,2013-08-03 15:56:00,
2013-08-03 12:01:00,75.1,62.5,29.95,WSW,257,3.0,10.0,65,0.00,,,0.00,Wunderground v.1.15,2013-08-03 16:01:00,
2013-08-03 12:06:00,75.1,62.1,29.95,West,268,4.0,11.0,64,0.00,,,0.00,Wunderground v.1.15,2013-08-03 16:06:00,
2013-08-03 12:12:00,74.9,61.9,29.95,WNW,287,4.0,7.0,64,0.00,,,0.00,Wunderground v.1.15,2013-08-03 16:12:00,
2013-08-03 12:18:00,75.3,62.7,29.95,WNW,285,4.0,7.0,65,0.00,,,0.00,Wunderground v.1.15,2013-08-03 16:18:00,
2013-08-03 12:24:00,75.3,64.4,29.95,West,271,3.0,8.0,69,0.00,,,0.00,Wunderground v.1.15,2013-08-03 16:24:00,
2013-08-03 12:30:00,75.1,63.8,29.96,West,271,3.0,6.0,68,0.00,,,0.00,Wunderground v.1.15,2013-08-03 16:30:00,
2013-08-03 12:36:00,74.7,61.3,29.96,SSW,206,4.0,6.0,63,0.00,,,0.00,Wunderground v.1.15,2013-08-03 16:36:00,
2013-08-03 12:42:00,74.7,61.7,29.96,SW,222,3.0,6.0,64,0.00,,,0.00,Wunderground v.1.15,2013-08-03 16:42:00,
2013-08-03 12:49:00,74.9,62.3,29.96,West,267,4.0,6.0,65,0.00,,,0.00,Wunderground v.1.15,2013-08-03 16:49:00,
2013-08-03 12:54:00,74.7,63.0,29.96,NW,311,4.0,6.0,67,0.00,,,0.00,Wunderground v.1.15,2013-08-03 16:54:00,
2013-08-03 13:00:00,74.6,62.9,29.97,West,274,4.0,4.0,67,0.00,,,0.00,Wunderground v.1.15,2013-08-03 17:00:00,
2013-08-03 13:05:00,74.4,61.9,29.97,NW,308,4.0,12.0,65,0.00,,,0.00,Wunderground v.1.15,2013-08-03 17:05:00,
2013-08-03 13:11:00,74.4,64.0,29.97,NNW,337,5.0,5.0,70,0.00,,,0.00,Wunderground v.1.15,2013-08-03 17:11:00,
2013-08-03 13:16:00,74.4,63.1,29.97,NW,325,5.0,5.0,68,0.00,,,0.00,Wunderground v.1.15,2013-08-03 17:16:00,
2013-08-03 13:22:00,74.2,62.1,29.97,West,278,4.0,7.0,66,0.00,,,0.00,Wunderground v.1.15,2013-08-03 17:22:00,
2013-08-03 13:28:00,74.0,63.6,29.97,West,271,5.0,8.0,70,0.00,,,0.00,Wunderground v.1.15,2013-08-03 17:28:00,
2013-08-03 13:34:00,74.0,63.6,29.97,West,263,5.0,6.0,70,0.00,,,0.00,Wunderground v.1.15,2013-08-03 17:34:00,
2013-08-03 13:40:00,74.2,63.4,29.97,NW,304,3.0,7.0,69,0.00,,,0.00,Wunderground v.1.15,2013-08-03 17:40:00,
2013-08-03 13:46:00,74.0,61.9,29.98,West,280,4.0,7.0,66,0.00,,,0.00,Wunderground v.1.15,2013-08-03 17:46:00,
2013-08-03 13:52:00,74.2,63.0,29.98,West,281,4.0,6.0,68,0.00,,,0.00,Wunderground v.1.15,2013-08-03 17:52:00,
2013-08-03 13:59:00,74.2,60.8,29.98,West,265,4.0,7.0,63,0.00,,,0.00,Wunderground v.1.15,2013-08-03 17:59:00,
2013-08-03 14:04:00,73.7,58.9,29.97,West,271,5.0,12.0,60,0.00,,,0.00,Wunderground v.1.15,2013-08-03 18:04:00,
2013-08-03 14:09:00,73.7,60.3,29.97,NW,308,4.0,12.0,63,0.00,,,0.00,Wunderground v.1.15,2013-08-03 18:09:00,
2013-08-03 14:14:00,74.2,59.4,29.97,SW,236,3.0,5.0,60,0.00,,,0.00,Wunderground v.1.15,2013-08-03 18:14:00,
2013-08-03 14:20:00,74.2,60.3,29.98,NW,318,3.0,3.0,62,0.00,,,0.00,Wunderground v.1.15,2013-08-03 18:20:00,
2013-08-03 14:26:00,74.0,60.6,29.98,NW,323,3.0,12.0,63,0.00,,,0.00,Wunderground v.1.15,2013-08-03 18:26:00,
2013-08-03 14:31:00,73.7,61.6,29.98,West,275,5.0,5.0,66,0.00,,,0.00,Wunderground v.1.15,2013-08-03 18:31:00,
2013-08-03 14:37:00,73.2,60.3,29.98,WNW,287,5.0,10.0,64,0.00,,,0.00,Wunderground v.1.15,2013-08-03 18:37:00,
2013-08-03 14:44:00,73.3,62.9,29.98,NW,306,5.0,5.0,70,0.00,,,0.00,Wunderground v.1.15,2013-08-03 18:44:00,
2013-08-03 14:48:00,73.3,62.1,29.97,WNW,302,5.0,10.0,68,0.00,,,0.00,Wunderground v.1.15,2013-08-03 18:48:00,
2013-08-03 14:54:00,73.2,63.6,29.97,West,272,4.0,6.0,72,0.00,,,0.00,Wunderground v.1.15,2013-08-03 18:54:00,
2013-08-03 14:59:00,73.0,63.0,29.97,WNW,302,3.0,7.0,71,0.00,,,0.00,Wunderground v.1.15,2013-08-03 18:59:00,
2013-08-03 15:06:00,72.8,64.0,29.97,West,261,4.0,13.0,74,0.00,,,0.00,Wunderground v.1.15,2013-08-03 19:06:00,
2013-08-03 15:12:00,72.8,61.6,29.97,WSW,247,5.0,7.0,68,0.00,,,0.00,Wunderground v.1.15,2013-08-03 19:12:00,
2013-08-03 15:17:00,73.2,62.8,29.98,WNW,301,5.0,7.0,70,0.00,,,0.00,Wunderground v.1.15,2013-08-03 19:17:00,
2013-08-03 15:23:00,72.7,62.3,29.98,WSW,251,5.0,17.0,70,0.00,,,0.00,Wunderground v.1.15,2013-08-03 19:23:00,
2013-08-03 15:29:00,73.0,62.2,29.98,NW,319,5.0,17.0,69,0.00,,,0.00,Wunderground v.1.15,2013-08-03 19:29:00,
2013-08-03 15:34:00,73.3,62.5,29.97,WSW,256,5.0,12.0,69,0.00,,,0.00,Wunderground v.1.15,2013-08-03 19:34:00,
2013-08-03 15:39:00,73.7,62.5,29.97,NW,315,5.0,12.0,68,0.00,,,0.00,Wunderground v.1.15,2013-08-03 19:39:00,
2013-08-03 15:45:00,73.2,60.7,29.97,NW,313,5.0,7.0,65,0.00,,,0.00,Wunderground v.1.15,2013-08-03 19:45:00,
2013-08-03 15:50:00,73.0,61.8,29.97,West,267,6.0,6.0,68,0.00,,,0.00,Wunderground v.1.15,2013-08-03 19:50:00,
2013-08-03 15:57:00,73.2,64.0,29.97,West,277,4.0,6.0,73,0.00,,,0.00,Wunderground v.1.15,2013-08-03 19:57:00,
2013-08-03 16:02:00,73.0,62.2,29.98,West,264,4.0,13.0,69,0.00,,,0.00,Wunderground v.1.15,2013-08-03 20:02:00,
2013-08-03 16:09:00,72.8,61.6,29.98,West,272,5.0,13.0,68,0.00,,,0.00,Wunderground v.1.15,2013-08-03 20:09:00,
2013-08-03 16:14:00,72.8,62.4,29.98,West,275,5.0,7.0,70,0.00,,,0.00,Wunderground v.1.15,2013-08-03 20:14:00,
2013-08-03 16:19:00,73.0,64.2,29.98,WSW,253,4.0,7.0,74,0.00,,,0.00,Wunderground v.1.15,2013-08-03 20:19:00,
2013-08-03 16:25:00,73.2,64.0,29.98,WNW,294,4.0,6.0,73,0.00,,,0.00,Wunderground v.1.15,2013-08-03 20:25:00,
2013-08-03 16:30:00,73.0,61.0,29.99,West,263,4.0,4.0,66,0.00,,,0.00,Wunderground v.1.15,2013-08-03 20:30:00,
2013-08-03 16:36:00,72.5,62.2,29.99,WNW,285,5.0,10.0,70,0.00,,,0.00,Wunderground v.1.15,2013-08-03 20:36:00,
2013-08-03 16:41:00,72.5,61.3,29.99,NW,319,5.0,5.0,68,0.00,,,0.00,Wunderground v.1.15,2013-08-03 20:41:00,
2013-08-03 16:46:00,72.5,63.0,29.99,SSW,209,5.0,5.0,72,0.00,,,0.00,Wunderground v.1.15,2013-08-03 20:46:00,
2013-08-03 16:52:00,72.0,61.3,29.99,West,265,5.0,6.0,69,0.00,,,0.00,Wunderground v.1.15,2013-08-03 20:52:00,
2013-08-03 16:57:00,72.1,64.9,29.99,West,268,4.0,6.0,78,0.00,,,0.00,Wunderground v.1.15,2013-08-03 20:57:00,
2013-08-03 17:03:00,72.1,64.9,29.99,NW,322,4.0,13.0,78,0.00,,,0.00,Wunderground v.1.15,2013-08-03 21:03:00,
2013-08-03 17:09:00,71.6,61.3,29.99,NNW,328,4.0,13.0,70,0.00,,,0.00,Wunderground v.1.15,2013-08-03 21:09:00,
2013-08-03 17:14:00,71.3,65.5,29.99,West,275,5.0,5.0,82,0.00,,,0.00,Wunderground v.1.15,2013-08-03 21:14:00,
2013-08-03 17:19:00,71.3,62.6,29.99,WNW,298,5.0,8.0,74,0.00,,,0.00,Wunderground v.1.15,2013-08-03 21:19:00,
2013-08-03 17:25:00,71.3,64.1,29.99,WNW,302,5.0,10.0,78,0.00,,,0.00,Wunderground v.1.15,2013-08-03 21:25:00,
2013-08-03 17:30:00,71.3,64.4,30.00,WNW,289,5.0,6.0,79,0.00,,,0.00,Wunderground v.1.15,2013-08-03 21:30:00,
2013-08-03 17:36:00,70.9,62.6,30.00,West,267,4.0,7.0,75,0.00,,,0.00,Wunderground v.1.15,2013-08-03 21:36:00,
2013-08-03 17:41:00,71.5,62.8,30.00,West,275,3.0,4.0,74,0.00,,,0.00,Wunderground v.1.15,2013-08-03 21:41:00,
2013-08-03 17:47:00,71.1,63.9,29.99,West,268,4.0,5.0,78,0.00,,,0.00,Wunderground v.1.15,2013-08-03 21:47:00,
2013-08-03 17:53:00,71.1,62.8,29.99,West,268,4.0,7.0,75,0.00,,,0.00,Wunderground v.1.15,2013-08-03 21:53:00,
2013-08-03 17:59:00,70.8,60.9,29.99,WNW,294,4.0,11.0,71,0.00,,,0.00,Wunderground v.1.15,2013-08-03 21:59:00,
2013-08-03 18:04:00,70.6,61.9,29.99,WNW,298,4.0,13.0,74,0.00,,,0.00,Wunderground v.1.15,2013-08-03 22:04:00,
2013-08-03 18:10:00,70.6,62.3,29.99,WNW,294,3.0,13.0,75,0.00,,,0.00,Wunderground v.1.15,2013-08-03 22:10:00,
2013-08-03 18:15:00,70.6,61.1,29.98,WNW,294,2.0,5.0,72,0.00,,,0.00,Wunderground v.1.15,2013-08-03 22:15:00,
2013-08-03 18:20:00,70.9,61.0,29.98,West,265,2.0,2.0,71,0.00,,,0.00,Wunderground v.1.15,2013-08-03 22:20:00,
2013-08-03 18:26:00,70.8,60.5,29.98,West,261,3.0,3.0,70,0.00,,,0.00,Wunderground v.1.15,2013-08-03 22:26:00,
2013-08-03 18:31:00,71.3,63.3,29.98,West,280,2.0,4.0,76,0.00,,,0.00,Wunderground v.1.15,2013-08-03 22:31:00,
2013-08-03 18:37:00,71.1,59.6,29.98,NW,306,3.0,7.0,67,0.00,,,0.00,Wunderground v.1.15,2013-08-03 22:37:00,
2013-08-03 18:42:00,70.9,60.2,29.98,West,271,3.0,3.0,69,0.00,,,0.00,Wunderground v.1.15,2013-08-03 22:42:00,
2013-08-03 18:47:00,70.9,59.4,29.98,West,278,3.0,3.0,67,0.00,,,0.00,Wunderground v.1.15,2013-08-03 22:47:00,
2013-08-03 18:54:00,71.5,62.0,29.98,West,272,3.0,3.0,72,0.00,,,0.00,Wunderground v.1.15,2013-08-03 22:54:00,
2013-08-03 18:59:00,71.3,61.0,29.98,West,271,2.0,5.0,70,0.00,,,0.00,Wunderground v.1.15,2013-08-03 22:59:00,
2013-08-03 19:04:00,71.1,62.0,29.97,West,281,2.0,11.0,73,0.00,,,0.00,Wunderground v.1.15,2013-08-03 23:04:00,
2013-08-03 19:11:00,71.1,61.6,29.97,West,281,1.0,3.0,72,0.00,,,0.00,Wunderground v.1.15,2013-08-03 23:11:00,
2013-08-03 19:17:00,70.8,62.1,29.97,West,281,1.0,4.0,74,0.00,,,0.00,Wunderground v.1.15,2013-08-03 23:17:00,
2013-08-03 19:21:00,70.4,63.2,29.97,WNW,282,1.0,2.0,78,0.00,,,0.00,Wunderground v.1.15,2013-08-03 23:21:00,
2013-08-03 19:28:00,70.3,63.5,29.97,WNW,282,1.0,4.0,79,0.00,,,0.00,Wunderground v.1.15,2013-08-03 23:28:00,
2013-08-03 19:34:00,70.1,61.8,29.97,WNW,282,1.0,3.0,75,0.00,,,0.00,Wunderground v.1.15,2013-08-03 23:34:00,
2013-08-03 19:39:00,70.1,60.3,29.97,WNW,288,1.0,3.0,71,0.00,,,0.00,Wunderground v.1.15,2013-08-03 23:39:00,
2013-08-03 19:44:00,69.9,61.2,29.98,West,274,2.0,2.0,74,0.00,,,0.00,Wunderground v.1.15,2013-08-03 23:44:00,
2013-08-03 19:51:00,69.6,59.8,29.98,WNW,287,2.0,2.0,71,0.00,,,0.00,Wunderground v.1.15,2013-08-03 23:51:00,
2013-08-03 19:55:00,69.4,59.2,29.98,WNW,289,2.0,5.0,70,0.00,,,0.00,Wunderground v.1.15,2013-08-03 23:55:00,
2013-08-03 20:02:00,69.3,60.3,29.98,WNW,289,1.0,10.0,73,0.00,,,0.00,Wunderground v.1.15,2013-08-04 00:02:00,
2013-08-03 20:07:00,69.3,60.7,29.98,WNW,289,1.0,10.0,74,0.00,,,0.00,Wunderground v.1.15,2013-08-04 00:07:00,
2013-08-03 20:13:00,69.3,60.7,29.98,WNW,289,0.0,1.0,74,0.00,,,0.00,Wunderground v.1.15,2013-08-04 00:13:00,
2013-08-03 20:19:00,68.9,61.0,29.98,WNW,289,0.0,2.0,76,0.00,,,0.00,Wunderground v.1.15,2013-08-04 00:19:00,
2013-08-03 20:24:00,68.4,60.9,29.98,WNW,289,0.0,0.0,77,0.00,,,0.00,Wunderground v.1.15,2013-08-04 00:24:00,
2013-08-03 20:29:00,67.9,60.8,29.99,WNW,289,0.0,0.0,78,0.00,,,0.00,Wunderground v.1.15,2013-08-04 00:29:00,
2013-08-03 20:35:00,67.6,61.6,29.99,WNW,289,0.0,0.0,81,0.00,,,0.00,Wunderground v.1.15,2013-08-04 00:35:00,
2013-08-03 20:41:00,67.1,61.1,29.99,WNW,289,0.0,0.0,81,0.00,,,0.00,Wunderground v.1.15,2013-08-04 00:41:00,
2013-08-03 20:46:00,66.9,63.6,29.99,WNW,289,0.0,0.0,89,0.00,,,0.00,Wunderground v.1.15,2013-08-04 00:46:00,
2013-08-03 20:51:00,66.6,66.0,29.99,WNW,289,0.0,0.0,98,0.00,,,0.00,Wunderground v.1.15,2013-08-04 00:51:00,
2013-08-03 20:57:00,66.3,66.3,29.99,WNW,288,0.0,0.0,100,0.00,,,0.00,Wunderground v.1.15,2013-08-04 00:57:00,
2013-08-03 21:02:00,65.6,65.6,29.99,WNW,288,0.0,7.0,100,0.00,,,0.00,Wunderground v.1.15,2013-08-04 01:02:00,
2013-08-03 21:09:00,65.0,65.0,29.99,WNW,288,0.0,7.0,100,0.00,,,0.00,Wunderground v.1.15,2013-08-04 01:09:00,
2013-08-03 21:15:00,64.5,64.5,29.99,WNW,288,0.0,0.0,100,0.00,,,0.00,Wunderground v.1.15,2013-08-04 01:15:00,
2013-08-03 21:21:00,64.0,64.0,29.99,WNW,287,0.0,0.0,100,0.00,,,0.00,Wunderground v.1.15,2013-08-04 01:21:00,
2013-08-03 21:26:00,63.7,63.7,29.99,WNW,287,0.0,0.0,100,0.00,,,0.00,Wunderground v.1.15,2013-08-04 01:26:00,
2013-08-03 21:31:00,63.4,63.4,29.99,WNW,287,0.0,0.0,100,0.00,,,0.00,Wunderground v.1.15,2013-08-04 01:31:00,
2013-08-03 21:36:00,63.1,63.1,29.99,WNW,285,0.0,0.0,100,0.00,,,0.00,Wunderground v.1.15,2013-08-04 01:36:00,
2013-08-03 21:42:00,62.7,62.7,29.99,WNW,284,0.0,0.0,100,0.00,,,0.00,Wunderground v.1.15,2013-08-04 01:42:00,
2013-08-03 21:47:00,62.4,62.4,29.99,WNW,282,0.0,0.0,100,0.00,,,0.00,Wunderground v.1.15,2013-08-04 01:47:00,
2013-08-03 21:52:00,62.1,62.1,29.99,West,278,0.0,0.0,100,0.00,,,0.00,Wunderground v.1.15,2013-08-04 01:52:00,
2013-08-03 21:58:00,61.5,61.5,29.99,WNW,289,0.0,0.0,100,0.00,,,0.00,Wunderground v.1.15,2013-08-04 01:58:00,
2013-08-03 22:04:00,61.0,61.0,30.00,WNW,289,0.0,0.0,100,0.00,,,0.00,Wunderground v.1.15,2013-08-04 02:04:00,
2013-08-03 22:09:00,60.5,60.5,30.00,WNW,289,0.0,0.0,100,0.00,,,0.00,Wunderground v.1.15,2013-08-04 02:09:00,
2013-08-03 22:15:00,60.2,60.2,30.00,WNW,289,0.0,0.0,100,0.00,,,0.00,Wunderground v.1.15,2013-08-04 02:15:00,
2013-08-03 22:21:00,59.9,59.9,30.00,WNW,289,0.0,0.0,100,0.00,,,0.00,Wunderground v.1.15,2013-08-04 02:21:00,
2013-08-03 22:26:00,59.5,59.5,30.00,WNW,289,0.0,0.0,100,0.00,,,0.00,Wunderground v.1.15,2013-08-04 02:26:00,
2013-08-03 22:31:00,59.5,59.5,30.01,WNW,289,0.0,0.0,100,0.00,,,0.00,Wunderground v.1.15,2013-08-04 02:31:00,
2013-08-03 22:37:00,59.5,59.5,30.01,WNW,288,0.0,0.0,100,0.00,,,0.00,Wunderground v.1.15,2013-08-04 02:37:00,
2013-08-03 22:43:00,59.2,59.2,30.01,WNW,288,0.0,0.0,100,0.00,,,0.00,Wunderground v.1.15,2013-08-04 02:43:00,
2013-08-03 22:48:00,59.0,59.0,30.01,WNW,288,0.0,0.0,100,0.00,,,0.00,Wunderground v.1.15,2013-08-04 02:48:00,
2013-08-03 22:54:00,59.0,59.0,30.01,WNW,288,0.0,0.0,100,0.00,,,0.00,Wunderground v.1.15,2013-08-04 02:54:00,
2013-08-03 22:59:00,58.9,58.9,30.01,WNW,288,0.0,0.0,100,0.00,,,0.00,Wunderground v.1.15,2013-08-04 02:59:00,
2013-08-03 23:04:00,58.6,58.6,30.01,WNW,288,0.0,0.0,100,0.00,,,0.00,Wunderground v.1.15,2013-08-04 03:04:00,
2013-08-03 23:10:00,58.6,58.6,30.01,WNW,288,0.0,0.0,100,0.00,,,0.00,Wunderground v.1.15,2013-08-04 03:10:00,
2013-08-03 23:16:00,58.4,58.4,30.01,WNW,288,0.0,0.0,100,0.00,,,0.00,Wunderground v.1.15,2013-08-04 03:16:00,
2013-08-03 23:21:00,58.3,58.3,30.01,WNW,288,0.0,0.0,100,0.00,,,0.00,Wunderground v.1.15,2013-08-04 03:21:00,
2013-08-03 23:26:00,58.1,58.1,30.01,WNW,288,0.0,0.0,100,0.00,,,0.00,Wunderground v.1.15,2013-08-04 03:26:00,
2013-08-03 23:32:00,58.3,58.3,30.02,WNW,288,0.0,0.0,100,0.00,,,0.00,Wunderground v.1.15,2013-08-04 03:32:00,
2013-08-03 23:37:00,58.3,58.3,30.02,WNW,288,0.0,0.0,100,0.00,,,0.00,Wunderground v.1.15,2013-08-04 03:37:00,
2013-08-03 23:43:00,58.1,58.1,30.02,WNW,288,0.0,0.0,100,0.00,,,0.00,Wunderground v.1.15,2013-08-04 03:43:00,
2013-08-03 23:48:00,58.0,58.0,30.02,WNW,288,0.0,0.0,100,0.00,,,0.00,Wunderground v.1.15,2013-08-04 03:48:00,
2013-08-03 23:53:00,57.8,57.8,30.02,WNW,288,0.0,0.0,100,0.00,,,0.00,Wunderground v.1.15,2013-08-04 03:53:00,
2013-08-03 23:59:00,57.8,57.8,30.02,WNW,288,0.0,0.0,100,0.00,,,0.00,Wunderground v.1.15,2013-08-04 03:59:00,